Theta_e
325 326 327 326 329 330 330 331 331 331 332 325 325 326 327 328 329 334 331 329 327 327 329 326 324 324 323 324 325 322 328 325 321 321 323 326 325 324 323 327 324 321 319
323 325 327 326 328 329 330 331 333 332 331 333 330 329 328 329 330 331 331 332 330 329 329 329 325 327 327 330 327 330 327 327 324 319 322 322 325 329 327 329 325 326 325
320 322 326 326 327 329 330 331 332 331 333 333 332 327 331 333 334 335 336 334 331 331 332 332 332 332 329 331 331 324 323 321 324 319 319 322 325 327 328 328 327 327 324
320 320 322 326 326 329 330 331 330 330 331 333 333 331 331 329 328 331 334 335 335 335 335 334 334 334 332 332 329 329 325 323 324 321 321 321 321 324 325 322 320 321 319
320 320 321 325 326 327 328 330 331 330 329 328 328 327 327 326 325 328 329 330 331 331 332 332 333 323 315 320 324 329 328 324 322 320 319 319 320 320 321 323 321 321 322
322 321 321 320 323 325 328 329 330 330 329 329 328 327 326 322 303 310 323 326 326 326 325 324 322 317 312 308 309 308 322 329 327 322 321 321 324 323 324 323 322 320 316
322 322 322 319 319 323 325 325 328 329 331 329 328 327 327 322 300 303 311 330 328 327 326 326 322 320 321 320 306 306 307 306 311 331 328 326 326 328 328 325 325 322 321
322 322 322 319 317 321 323 325 329 331 331 330 329 329 328 318 299 300 308 328 328 328 329 329 327 326 322 323 323 324 324 324 325 323 330 331 331 331 330 328 327 326 325
320 322 322 320 318 320 321 325 328 329 330 329 329 328 327 322 297 297 308 323 322 322 321 322 323 322 300 300 318 319 320 321 297 298 299 296 295 296 306 324 319 317 315
320 321 322 321 319 320 322 325 327 327 326 324 325 327 316 325 296 295 304 315 317 314 316 315 299 309 295 296 319 319 317 319 318 315 316 306 301 308 297 315 317 312 312
322 322 323 323 321 323 325 326 326 325 323 324 322 325 324 322 315 294 295 314 313 311 311 311 308 295 294 294 295 318 315 316 310 313 314 314 314 314 313 313 314 312 309
322 321 323 325 321 321 326 325 324 323 322 322 321 321 321 324 308 295 294 295 305 316 317 318 316 292 292 292 295 297 295 297 312 314 313 312 313 312 313 313 315 314 313
323 322 324 325 323 322 324 324 321 323 318 318 317 317 318 320 322 299 295 294 296 318 323 310 299 294 293 293 291 293 291 309 311 312 314 315 315 315 315 314 315 313 313
323 323 324 324 323 321 322 322 320 320 318 317 317 317 318 318 319 319 314 310 299 306 307 316 309 305 303 304 307 304 309 313 314 316 316 315 314 313 312 314 312 311 308
323 324 324 325 324 322 321 320 319 325 318 319 319 319 319 318 318 312 314 318 319 313 315 320 316 316 314 315 316 318 319 319 317 317 315 316 316 315 311 309 306 306 305
326 323 323 323 324 322 320 318 303 302 302 298 302 310 319 304 298 299 302 300 299 296 313 320 321 322 322 322 324 326 324 313 318 315 312 309 304 304 300 300 303 305 305
328 326 322 319 322 321 320 318 317 310 298 296 297 298 298 306 296 298 295 293 292 297 319 323 321 320 321 323 320 317 314 311 310 310 302 303 300 300 303 303 305 305 303
331 309 323 322 322 322 321 320 319 317 316 316 297 300 295 295 295 293 292 296 308 308 322 322 321 323 318 317 307 306 305 301 300 302 300 301 303 303 303 304 304 303 302
326 325 325 323 322 320 322 322 320 319 318 316 318 305 297 292 292 291 293 322 325 323 322 318 317 311 303 304 302 302 301 298 297 302 304 303 305 305 303 303 302 293 294
326 312 315 323 322 322 322 321 321 321 320 320 324 324 314 309 317 318 323 326 322 315 314 306 304 302 302 299 298 299 298 298 301 303 302 302 302 302 301 300 301 300 301
325 325 311 322 323 322 322 322 322 321 321 322 322 321 302 325 321 321 318 320 315 312 308 302 306 306 299 300 303 306 306 303 301 301 301 300 301 300 302 302 302 301 299
325 324 322 322 323 322 323 323 323 322 322 323 323 315 294 324 322 316 313 310 306 308 310 306 303 303 303 303 303 302 301 300 300 300 300 301 302 302 301 301 299 298 297
325 324 324 322 323 314 321 323 322 323 324 323 320 317 318 316 312 310 310 309 307 306 305 305 304 302 302 301 300 300 299 300 302 302 300 301 301 300 300 300 299 298 297
324 324 324 323 322 322 323 323 324 314 323 319 318 317 315 314 311 309 306 305 302 301 300 301 301 301 301 301 301 302 302 303 303 302 301 300 300 298 299 298 298 297 294
323 324 323 323 322 322 323 323 323 321 318 317 316 314 312 310 308 304 302 299 299 301 300 300 300 301 301 301 301 300 289 286 295 288 301 300 299 300 299 298 298 298 296
323 322 323 323 322 321 319 317 317 316 313 311 311 308 305 302 299 299 300 301 299 299 300 300 300 300 299 299 297 287 285 285 292 286 298 301 299 298 298 297 296 296 295
Wind_Speed
6 5 5 5 6 7 4 5 7 6 7 5 4 6 7 6 4 7 7 8 8 8 8 9 8 9 5 4 4 5 4 7 8 9 8 8 8 9 9 8 9 11 10
7 6 6 5 5 6 7 7 8 9 7 9 8 6 5 6 6 6 8 8 10 9 9 11 11 8 8 8 8 5 2 2 8 11 10 10 9 9 10 8 7 8 7
9 8 7 6 6 6 7 6 10 7 9 10 10 9 9 8 9 9 11 14 11 10 11 11 16 13 10 9 4 4 5 5 8 9 10 9 7 6 6 5 6 4 4
9 8 9 7 7 6 6 6 7 9 11 10 11 11 10 10 9 10 11 11 11 11 11 12 11 11 9 9 7 5 5 7 7 7 7 7 6 6 6 6 6 5 6
10 10 9 8 8 8 7 6 6 7 9 11 11 11 10 10 7 11 11 11 11 11 11 10 7 9 12 6 4 4 7 6 6 6 8 7 6 6 9 6 7 6 7
11 10 10 10 9 9 8 7 7 8 8 9 9 10 10 9 9 9 10 10 10 10 10 10 9 9 10 9 8 10 3 6 7 5 5 5 5 6 7 7 7 7 9
12 11 11 10 11 10 9 8 8 8 7 8 9 9 9 9 6 8 4 9 9 9 9 9 8 7 9 9 7 8 8 7 8 2 5 4 5 8 7 8 9 10 10
13 12 11 11 12 12 11 10 8 7 7 7 7 7 7 7 5 5 4 7 7 7 7 7 6 7 5 4 4 5 5 5 4 5 6 5 6 4 8 9 9 10 10
14 13 13 12 12 12 12 11 9 8 7 7 7 6 6 7 6 6 5 7 7 6 5 5 5 4 5 3 6 6 6 5 4 2 3 4 4 5 5 7 9 9 11
16 15 14 13 13 13 13 12 10 8 8 7 7 6 4 7 7 7 6 5 7 6 5 5 3 1 9 7 5 5 5 4 5 5 5 5 7 7 6 9 9 11 11
16 15 15 13 13 13 12 11 10 10 9 8 8 7 7 6 10 9 8 5 7 7 7 7 7 9 8 7 6 4 2 5 2 6 6 6 6 7 7 8 10 10 11
16 16 15 14 11 11 13 12 11 10 9 9 8 7 7 8 4 10 9 5 6 5 5 5 5 11 8 5 4 3 3 4 7 7 7 7 7 7 6 6 7 9 10
18 17 16 15 13 13 13 12 11 11 10 10 9 8 8 8 8 10 11 7 3 3 3 8 10 8 5 5 9 6 4 7 8 8 8 7 6 5 6 8 9 11 12
18 17 16 16 15 13 11 11 11 11 10 10 10 9 9 9 9 10 8 7 5 7 6 6 2 2 6 4 3 8 8 8 7 7 7 6 5 6 6 6 8 9 7
19 17 17 14 16 14 13 12 12 11 11 10 10 9 9 9 9 8 9 9 8 9 7 6 6 6 5 7 8 6 4 4 5 4 5 5 6 7 5 6 7 8 10
18 16 15 15 15 13 13 12 9 0 13 4 6 1 7 11 12 13 10 5 4 12 6 6 6 4 3 3 3 1 1 3 4 5 4 6 7 7 6 6 5 6 9
18 17 15 15 15 15 14 14 13 9 6 2 4 7 9 11 11 11 8 9 7 9 7 3 3 2 1 3 3 5 4 7 5 5 5 4 4 5 8 7 7 8 9
19 15 16 16 15 15 15 14 13 13 14 13 3 4 10 13 13 13 14 13 6 6 5 5 4 4 7 6 8 6 8 7 6 8 4 2 3 6 7 8 7 8 9
18 16 16 15 15 15 14 14 14 14 13 13 11 5 8 8 10 11 13 8 6 5 5 6 6 9 7 8 8 6 6 4 2 3 5 5 5 6 6 7 8 7 6
17 16 15 14 14 15 14 14 14 13 13 12 12 10 11 11 10 10 6 4 8 8 9 9 8 7 8 8 4 2 3 3 3 1 4 5 5 5 6 7 8 9 10
13 16 11 14 15 14 14 14 13 13 13 12 11 12 12 8 9 10 9 9 9 11 11 10 9 10 5 5 7 4 2 5 3 3 3 3 4 4 4 6 8 9 9
13 13 15 15 12 12 12 12 13 12 12 10 10 9 7 10 11 11 11 12 10 9 9 9 8 6 7 6 4 4 5 5 3 2 1 2 4 6 5 6 6 7 8
12 12 12 13 11 10 9 13 12 12 10 11 12 13 11 11 13 13 13 13 11 10 8 7 6 8 7 8 6 4 3 2 1 3 4 4 4 5 6 6 8 8 9
12 12 12 12 13 14 14 13 11 9 13 13 14 13 14 14 14 16 14 13 11 9 7 7 8 7 8 6 5 4 3 3 3 3 3 4 5 5 6 6 6 7 6
10 10 11 11 11 11 12 12 12 13 13 13 13 14 15 14 15 14 14 11 11 10 11 9 8 10 9 9 8 9 6 5 6 6 4 5 6 7 6 7 9 9 9
10 9 9 9 10 8 10 10 12 14 14 13 13 13 14 13 12 11 10 11 11 12 13 9 10 13 12 9 10 8 5 5 5 6 7 5 6 7 7 9 11 9 13
Wind_Direction
134 121 101 90 80 91 82 69 79 91 115 96 83 87 101 110 124 104 115 128 133 140 140 128 124 137 134 150 178 242 218 191 132 145 132 138 157 178 159 182 157 195 171
145 139 112 110 101 91 86 87 97 115 120 125 138 141 135 126 144 158 169 143 136 139 153 154 138 145 169 189 182 228 179 143 140 152 144 157 171 170 174 188 189 209 180
153 148 135 127 123 102 92 90 96 111 116 123 123 123 134 132 125 127 137 140 146 148 152 150 157 161 177 185 160 154 153 143 144 158 163 161 152 166 169 190 210 209 212
156 152 146 147 140 127 114 107 101 100 110 117 115 119 117 112 109 107 112 116 127 134 140 145 159 156 153 157 159 166 147 152 149 165 157 158 177 173 207 191 192 211 207
162 154 153 154 148 151 136 122 111 111 110 116 114 109 109 115 106 116 114 115 115 113 117 120 107 72 66 67 165 145 144 164 158 166 172 176 181 183 207 200 224 208 211
170 161 157 161 157 156 155 142 138 130 125 121 118 113 104 87 38 56 115 118 117 114 110 107 111 105 80 60 47 52 105 186 189 187 166 196 201 215 214 221 227 220 240
180 167 163 164 167 163 167 162 151 145 138 128 127 121 110 106 95 85 69 120 122 126 131 136 144 123 159 135 117 112 77 56 38 287 277 234 228 218 235 221 230 237 243
186 175 172 172 172 171 171 166 161 157 156 150 143 128 130 111 111 87 85 120 128 130 141 146 134 153 83 94 144 154 157 160 185 222 230 247 234 250 228 236 254 255 260
186 181 178 177 172 175 176 171 171 169 165 168 166 163 161 140 156 168 216 165 146 142 135 136 141 141 105 305 188 176 179 179 143 213 289 327 339 321 309 252 236 243 256
186 185 180 178 174 177 179 177 175 180 181 185 178 179 128 154 171 192 227 153 147 145 152 143 8 263 167 212 202 178 201 203 219 202 208 213 214 212 234 246 263 261 266
187 181 179 178 177 176 173 174 176 186 178 197 185 180 180 185 165 193 234 190 158 170 164 171 173 157 181 212 273 218 280 324 213 269 260 251 246 246 245 223 250 261 272
188 183 179 176 182 174 176 176 181 182 182 185 187 191 186 184 167 190 212 251 354 173 168 163 135 168 188 197 234 310 25 298 263 263 260 266 268 268 266 262 264 263 274
188 184 178 178 186 174 179 178 179 180 186 189 187 191 185 181 183 159 188 206 238 254 26 62 104 162 156 211 239 265 210 237 255 264 265 273 288 331 331 287 272 265 271
187 186 181 180 184 179 185 181 191 185 194 191 188 189 186 182 188 167 182 185 207 227 219 219 174 211 224 292 227 204 238 258 273 289 298 312 308 281 288 294 297 303 315
185 186 186 186 186 182 196 189 196 189 198 193 193 193 187 191 187 170 163 181 186 209 196 209 192 206 222 219 219 230 236 250 256 277 291 299 319 316 331 360 6 315 281
185 189 189 189 182 188 189 189 207 111 189 199 51 239 128 95 105 130 162 174 135 143 198 232 223 224 250 283 297 300 303 133 5 348 353 357 2 342 338 294 254 291 303
192 188 191 201 185 195 190 194 189 195 76 128 144 67 69 125 133 160 149 112 135 150 233 191 194 148 196 104 102 75 45 46 346 26 21 46 14 265 263 321 332 329 322
196 188 197 194 198 196 197 196 200 191 196 200 112 184 145 148 155 141 142 139 150 225 206 191 168 112 80 66 64 57 52 57 57 350 330 324 315 319 322 321 331 338 334
200 200 200 198 206 201 199 200 202 203 201 200 135 140 120 130 132 150 168 227 205 170 134 100 91 95 76 96 95 90 96 106 50 286 308 347 314 330 337 344 338 333 312
204 208 196 208 198 204 209 203 207 206 203 208 175 150 139 153 152 157 168 126 91 97 113 119 113 105 110 106 87 101 131 128 193 335 351 353 354 341 354 344 330 336 338
199 195 203 209 204 205 204 207 208 207 208 204 202 135 170 172 139 132 137 128 123 132 123 121 114 110 114 117 130 108 164 82 71 56 36 11 352 356 340 347 348 1 337
200 200 189 207 207 203 201 209 208 209 208 201 110 124 151 147 138 128 121 112 109 101 110 117 115 125 125 118 89 113 66 63 41 41 27 7 15 2 359 5 341 336 329
198 199 181 197 194 188 187 205 201 210 176 138 147 152 158 137 127 128 121 112 109 104 109 115 107 109 81 94 91 76 98 115 124 18 28 17 352 12 337 355 344 343 348
185 187 189 195 190 191 190 204 187 164 151 159 164 150 138 133 128 121 122 119 111 110 105 109 119 112 109 109 117 135 93 19 36 48 350 359 357 5 350 347 319 339 298
169 182 189 192 168 181 172 168 161 155 159 150 144 138 132 131 128 123 126 130 123 121 123 128 126 126 127 119 105 94 71 23 22 312 341 356 346 328 341 345 338 333 345
156 153 156 158 161 153 145 148 150 143 141 139 136 132 129 125 121 125 124 131 124 125 130 128 127 123 121 104 87 68 43 13 360 343 317 336 335 334 356 335 336 336 337